GW1299 Weather Reports


time (UTC)temp
C
wind
direction
speed
KPH
gust
KPH
rain 1hr
cm
rain 24hr
cm
rain mn
cm
humidity
%
barometer
mb
20260507094542 12 102 0.0 4.8 0.00 0.56 0.18 87 1012.0
20260507093044 12 299 0.0 3.2 0.00 0.56 0.18 87 1011.6
20260507091539 12 285 0.0 3.2 0.00 0.56 0.18 86 1012.1
20260507090037 12 340 0.0 3.2 0.00 0.56 0.18 86 1011.8
20260507084534 12 285 0.0 3.2 0.00 0.56 0.18 86 1011.5
20260507083036 12 274 1.6 3.2 0.00 0.56 0.18 85 1011.6
20260507081536 12 309 0.0 4.8 0.00 0.56 0.18 84 1011.2
20260507080030 12 345 1.6 11.3 0.00 0.56 0.18 82 1011.0
20260507074526 12 212 3.2 11.3 0.00 0.56 0.18 86 1010.8
20260507073024 13 1 3.2 8.0 0.00 0.56 0.18 87 1010.6
20260507071527 13 293 1.6 8.0 0.03 0.56 0.18 87 1010.5
20260507070023 13 355 3.2 14.5 0.03 0.56 0.18 87 1010.4
20260507064521 13 318 3.2 11.3 0.03 0.56 0.18 89 1010.5
20260507063021 13 345 3.2 9.7 0.03 0.56 0.18 89 1010.3
20260507061519 13 278 0.0 12.9 0.03 0.53 0.15 88 1010.3
20260507060021 13 284 1.6 9.7 0.08 0.53 0.15 88 1010.3
20260507054512 13 260 3.2 11.3 0.08 0.53 0.15 87 1010.6
20260507053009 14 270 1.6 4.8 0.15 0.53 0.15 85 1010.2
20260507051505 15 293 4.8 14.5 0.13 0.51 0.13 82 1010.8
20260507050007 16 269 3.2 14.5 0.08 0.46 0.08 85 1010.7
20260507044559 16 293 0.0 3.2 0.08 0.46 0.08 83 1010.5
20260507043100 17 269 1.6 9.7 0.00 0.38 0.00 77 1010.7
20260507041602 17 301 1.6 11.3 0.00 0.38 0.00 76 1010.2
20260507040055 17 279 1.6 8.0 0.03 0.38 0.00 76 1009.7
20260507034549 17 249 1.6 11.3 0.03 0.38 0.38 78 1010.0
20260507033047 17 273 3.2 11.3 0.03 0.38 0.38 81 1010.0
20260507031546 17 294 3.2 12.9 0.03 0.38 0.38 83 1009.7
20260507030045 19 268 3.2 12.9 0.00 0.36 0.36 80 1009.7
20260507024545 19 295 6.4 11.3 0.00 0.36 0.36 79 1009.4
20260507023054 19 282 1.6 4.8 0.00 0.36 0.36 79 1009.1
20260507021550 19 280 3.2 11.3 0.00 0.36 0.36 79 1009.0
20260507020044 19 112 0.0 3.2 0.00 0.36 0.36 80 1008.9
20260507014555 20 112 0.0 3.2 0.00 0.36 0.36 79 1008.8
20260507013058 20 100 0.0 3.2 0.00 0.36 0.36 79 1009.1
20260507011542 20 96 0.0 3.2 0.00 0.36 0.36 78 1009.3
20260507010042 20 93 0.0 3.2 0.00 0.36 0.36 78 1009.3
20260507004541 20 93 0.0 3.2 0.00 0.36 0.36 78 1008.9
20260507003040 20 93 0.0 3.2 0.00 0.36 0.36 78 1008.8
20260507001555 20 93 0.0 3.2 0.00 0.36 0.36 77 1008.8
20260507000040 20 32 0.0 3.2 0.00 0.36 0.36 77 1008.8
20260506234538 20 70 0.0 3.2 0.00 0.36 0.36 76 1008.6
20260506233044 20 83 0.0 3.2 0.00 0.36 0.36 76 1008.5
20260506231541 20 116 0.0 4.8 0.00 0.36 0.36 74 1008.3
20260506230037 20 70 1.6 6.4 0.00 0.36 0.36 74 1008.2
20260506224537 20 104 1.6 4.8 0.00 0.36 0.36 74 1008.2
20260506223035 21 103 0.0 4.8 0.00 0.36 0.36 74 1008.3
20260506221535 21 154 0.0 3.2 0.00 0.36 0.36 74 1008.3
20260506220035 21 85 0.0 4.8 0.00 0.36 0.36 73 1008.2
20260506214533 21 78 1.6 8.0 0.00 0.36 0.36 73 1008.4
20260506213036 21 119 1.6 8.0 0.00 0.36 0.36 71 1008.1
20260506211532 21 79 0.0 9.7 0.00 0.36 0.36 73 1007.9
20260506210037 22 49 0.0 9.7 0.00 0.36 0.36 72 1007.9
20260506204530 21 138 0.0 6.4 0.00 0.36 0.36 73 1007.6
20260506203037 22 108 0.0 6.4 0.00 0.36 0.36 72 1007.8
20260506201529 21 311 1.6 12.9 0.00 0.36 0.36 72 1007.8
20260506200027 21 116 1.6 8.0 0.00 0.36 0.36 73 1007.8
20260506194525 21 72 3.2 12.9 0.00 0.36 0.36 73 1007.8
20260506193024 21 90 1.6 9.7 0.00 0.36 0.36 71 1007.9
20260506191522 21 76 1.6 9.7 0.00 0.36 0.36 72 1008.0
20260506190020 21 106 0.0 9.7 0.00 0.36 0.36 74 1008.1
20260506184520 20 99 0.0 8.0 0.00 0.36 0.36 74 1008.4
20260506183016 20 51 0.0 11.3 0.00 0.36 0.36 75 1008.5
20260506181519 20 87 1.6 16.1 0.00 0.36 0.36 75 1008.6
20260506180022 20 112 3.2 17.7 0.00 0.36 0.36 76 1008.9
20260506174512 19 85 3.2 11.3 0.00 0.36 0.36 77 1008.8
20260506173010 19 48 1.6 16.1 0.00 0.36 0.36 80 1008.8
20260506171509 18 224 4.8 11.3 0.00 0.36 0.36 81 1009.1
20260506170008 18 81 3.2 12.9 0.00 0.36 0.36 82 1009.0
20260506164506 17 281 1.6 17.7 0.00 0.36 0.36 85 1009.2
20260506163014 17 339 1.6 9.7 0.03 0.36 0.36 87 1009.1
20260506161510 17 88 3.2 6.4 0.03 0.36 0.36 88 1009.2
20260506160005 16 360 1.6 8.0 0.05 0.36 0.36 89 1009.6
20260506154501 16 154 3.2 11.3 0.08 0.36 0.36 89 1009.7
20260506153059 16 91 1.6 6.4 0.18 0.33 0.33 89 1009.3
20260506151558 16 336 1.6 8.0 0.23 0.33 0.33 89 1010.1
20260506150104 16 66 1.6 6.4 0.23 0.30 0.30 89 1010.3
20260506144555 16 295 1.6 14.5 0.25 0.28 0.28 88 1010.4
20260506143052 16 100 0.0 6.4 0.15 0.15 0.15 86 1010.4
20260506141551 16 123 1.6 8.0 0.10 0.10 0.10 85 1010.3
20260506140049 17 7 0.0 4.8 0.05 0.05 0.05 82 1010.5
20260506134610 17 81 1.6 6.4 0.03 0.03 0.03 79 1010.7
20260506133043 17 111 1.6 9.7 0.00 0.00 0.00 76 1010.7
20260506131600 17 81 0.0 9.7 0.00 0.00 0.00 76 1010.3
20260506130041 18 111 1.6 11.3 0.00 0.00 0.00 75 1010.1
20260506124539 18 122 1.6 8.0 0.00 0.00 0.00 74 1010.1
20260506123044 18 89 1.6 4.8 0.00 0.00 0.00 73 1010.4
20260506121604 18 134 1.6 9.7 0.00 0.00 0.00 72 1010.5
20260506120053 18 83 1.6 12.9 0.00 0.00 0.00 72 1010.5
20260506114554 18 27 1.6 9.7 0.00 0.00 0.00 71 1010.2
20260506113050 18 71 4.8 12.9 0.00 0.00 0.00 70 1010.0
20260506111607 18 89 3.2 9.7 0.00 0.00 0.00 71 1009.9
20260506110051 18 120 1.6 6.4 0.00 0.00 0.00 72 1009.8
20260506104545 18 99 1.6 12.9 0.00 0.00 0.00 72 1009.8
20260506103045 18 72 1.6 9.7 0.00 0.00 0.00 72 1009.7
20260506101542 18 37 3.2 8.0 0.00 0.00 0.00 72 1009.7
20260506100042 18 46 1.6 8.0 0.00 0.00 0.00 72 1009.6